Printer-friendly version

IAU Minor Planet Center

Minor Planet Center

MPEC 2007-E56 : 2007 EB26

The following Minor Planet Electronic Circular may be linked-to from your own Web pages, but must not otherwise be redistributed electronically.


Read MPEC 2007-E55 Read MPEC 2007-E57


M.P.E.C. 2007-E56                                Issued 2007 Mar. 12, 20:50 UT

     The Minor Planet Electronic Circulars contain information on unusual
         minor planets and routine data on comets.  They are published
   on behalf of Commission 20 of the International Astronomical Union by the
          Minor Planet Center, Smithsonian Astrophysical Observatory,
                          Cambridge, MA 02138, U.S.A.

             Prepared using the Tamkin Foundation Computer Network

                              MPC@CFA.HARVARD.EDU
          URL http://cfa-www.harvard.edu/iau/mpc.html  ISSN 1523-6714

                                   2007 EB26

Observations:
     K07E26B* C2007 03 10.10046 03 06 48.06 +29 16 05.0          21.2 V EE056G96
     K07E26B  C2007 03 10.10743 03 06 48.70 +29 16 04.4          21.3 V EE056G96
     K07E26B  C2007 03 10.11448 03 06 49.32 +29 16 03.1          21.6 V EE056G96
     K07E26B  C2007 03 10.12145 03 06 49.93 +29 16 01.9          22.2 V EE056G96
     K07E26B  C2007 03 10.15216 03 06 52.74 +29 15 57.0          20.7 V EE056G96
     K07E26B  C2007 03 10.15485 03 06 52.95 +29 15 56.0          19.8 V EE056G96
     K07E26B  C2007 03 10.15757 03 06 53.20 +29 15 55.7          21.5 V EE056G96
     K07E26B  C2007 03 10.16025 03 06 53.42 +29 15 55.4          20.3 V EE056G96
     K07E26B HC2007 03 11.12076 03 08 22.23 +29 13 27.5                 EE056291
     K07E26B  C2007 03 11.12500 03 08 22.55 +29 13 28.2                 EE056291
     K07E26B  C2007 03 11.12918 03 08 22.92 +29 13 27.7                 EE056291
     K07E26B  C2007 03 12.14871 03 09 53.34 +29 10 38.1                 EE056291
     K07E26B HC2007 03 12.15287 03 09 53.93 +29 10 36.3                 EE056291
     K07E26B HC2007 03 12.15702 03 09 54.13 +29 10 36.7                 EE056291

Observer details:
291 LPL/Spacewatch II.  Observer T. H. Bressi.  1.8-m f/2.7 reflector + CCD.
G96 Mt. Lemmon Survey.  Observer R. A. Kowalski.  Measurers E. C. Beshore,
    E. J. Christensen, G. J. Garradd, A. R. Gibbs, A. D. Grauer, R. E. Hill,
    R. A. Kowalski, S. M. Larson, R. H. McNaught.  1.5-m reflector + CCD.

Orbital elements:
2007 EB26                                                Earth MOID = 0.1125 AU
Epoch 2007 Apr. 10.0 TT = JDT 2454200.5                 MPC
M 310.32448              (2000.0)            P               Q
n   2.34644533     Peri.  240.68163     +0.47007024     +0.87447885
a   0.5608703      Node    57.83946     -0.75283463     +0.46801617
e   0.7552943      Incl.    8.12651     -0.46073202     +0.12746608
P   0.42           H   19.6           G   0.15           U   9
Residuals in seconds of arc
070310 G96  0.3+  0.7-    070310 G96  0.3-  0.0     070311 291  0.2-  0.7+
070310 G96  0.5+  0.1-    070310 G96  0.3-  0.2+    070312 291  1.4-  0.2+
070310 G96  0.3+  0.1-    070310 G96  0.7-  0.4+    070312 291  1.7+  0.7-
070310 G96  0.0   0.1-    070311 291  0.4+  1.1-    070312 291  0.3-  0.5+
070310 G96  0.1+  0.5+    070311 291  0.2-  0.4+

Ephemeris:
2007 EB26                a,e,i = 0.56, 0.76, 8                   Q = 0.9845
Date    TT    R. A. (2000) Decl.     Delta      r     Elong.  Phase     V
2007 03 11    03 08.20   +29 13.8    0.636    0.908    63.3    77.9    21.1
2007 03 16    03 15.06   +28 58.2    0.659    0.873    59.7    79.6    21.2
2007 03 21    03 20.37   +28 36.7    0.677    0.832    55.8    81.9    21.2
2007 03 26    03 23.87   +28 07.3    0.689    0.783    51.5    85.0    21.2
2007 03 31    03 25.08   +27 27.0    0.696    0.726    46.6    89.2    21.3

Kyle E. Smalley              (C) Copyright 2007 MPC           M.P.E.C. 2007-E56

Read MPEC 2007-E55 Read MPEC 2007-E57


Our Web policy. Index to the CBAT/MPC/ICQ pages.


Valid HTML 4.01!